Location: Andrest
(43.3200°N, 0.0641°E)
Time: 20:40:50
(UTC+00:00)

USA 215 - Pass Details

Date: 01 December 2020
Orbit: 1098 x 1110 km, 123.0° (Epoch: 14 January)

Event Time Altitude Azimuth Distance (km) Brightness Sun altitude
Exits shadow 18:46:42 47° 53° (NE) 1,432 3.4 -25.1°
Maximum altitude 18:48:50 87° 138° (SE) 1,115 3.1 -25.5°
Drops below altitude 10° 18:55:25 10° 230° (SW) 2,967 6.2 -26.7°
Sets 18:57:54 0° 230° (SW) 3,923 7.0 -27.1°
